Regional Weather Roundup
Issued by NWS

Home | Current Version | Previous Version | Graphics & Text | Print | Product List | Glossary On
Versions: 1 2 3 4 5 6 7 8 9 10 11 12 13 14 15 16 17 18 19 20 21 22 23 24 25 26 27 28 29 30 31 32 33 34 35 36 37 38 39 40 41 42 43 44 45 46 47 48 49 50
000
ASUS45 KABQ 281410
RWRNM
WEATHER ROUNDUP FOR NEW MEXICO
NATIONAL WEATHER SERVICE ALBUQUERQUE NM
700 AM MST SAT FEB 28 2015

NOTE: "FAIR" MEANS FEW OR NO CLOUDS BELOW 12,000 FEET AGL WITH NO
       SIGNIFICANT WEATHER OR OBSTRUCTIONS TO VISION.

      THIS PRODUCT IS RELEASED AS TWO VERSIONS.  ONE VERSION NEAR
      THE TOP OF THE HOUR CONTAINING PRELIMINARY DATA FROM ALBUQUERQUE
      AND OTHER STATIONS.  A FINAL VERSION WITH ADDITIONAL DATA IS
      ISSUED ABOUT 10 MINUTES AFTER THE HOUR.

NMZ501-503-504-510>518-281500-
NORTHWEST PLATEAU/NORTHCENTRAL MOUNTAINS

CITY           SKY/WX    TMP DP  RH WIND       PRES   REMARKS
FARMINGTON     FLURRIES  29  26  89 E9        29.78R WCI  20
LOS ALAMOS     LGT SNOW  15  15 100 SW5       29.86S VSB 1   WCI   7
SANTA FE       LGT SNOW  17  13  84 SE9       29.89S VSB 3/4 WCI   6
TAOS           CLOUDY    16  10  79 CALM      29.86S VSB 3/4
ANGEL FIRE     LGT SNOW  22  19  87 CALM      29.82S

$$
NMZ402-403-502-505>509-281500-
WESTCENTRAL MOUNTAINS/SOUTHWEST MOUNTAINS

CITY           SKY/WX    TMP DP  RH WIND       PRES   REMARKS
GALLUP         LGT SNOW  32  30  92 SE3       29.76S FOG
GRANTS         LGT SNOW  23  22  93 S7        29.83R WCI  15
SILVER CITY    CLEAR     28  23  80 W3        29.92R

$$
NMZ407-409-411-412-281500-
SOUTHERN DESERTS

CITY           SKY/WX    TMP DP  RH WIND       PRES   REMARKS
LORDSBURG      FAIR      32  23  69 SE10      29.89R WCI  24
DEMING         CLEAR     26  21  81 E8        29.94R WCI  18
LAS CRUCES     CLEAR     27  23  84 S6        29.96R WCI  21
HOLLOMAN AFB   PTCLDY    22  19  87 NE5       30.00R WCI  16
ALAMOGORDO     PTCLDY    23  19  86 N6        30.00S WCI  16
T OR C         PTCLDY    31  24  75 CALM      29.90R

$$
NMZ519>523-281500-
CENTRAL VALLEYS/CENTRAL HIGHLANDS

CITY           SKY/WX    TMP DP  RH WIND       PRES   REMARKS
ALBUQUERQUE    LGT SNOW  20  18  92 N7        29.91S FOG     WCI  11
DOUBLE EAGLE   LGT SNOW  18  16  93 NE10      29.90R WCI   6
MORIARTY ARPT  LGT SNOW  15  12  88 S5        29.93F WCI   7
CLINES CORNERS LGT SNOW  12   8  84 SE3       29.85S FOG
BELEN          FLURRIES  22  22  98 E5        29.91S WCI  16
SOCORRO          N/A     27  25  94 CALM      29.93R

$$
NMZ524>526-539-540-281500-
SOUTHCENTRAL MOUNTAINS

CITY           SKY/WX    TMP DP  RH WIND       PRES   REMARKS
RUIDOSO        FOG        9   7  92 CALM      29.92R VSB 1/2

$$
NMZ527>531-281500-
NORTHEAST HIGHLANDS/NORTHEAST PLAINS

CITY           SKY/WX    TMP DP  RH WIND       PRES   REMARKS
LAS VEGAS      LGT SNOW  10   6  84 S18       29.87S VSB 3/4 WCI  -8
RATON          CLOUDY     8   5  87 CALM      29.90S
CLAYTON        MOCLDY    12   9  87 S14       29.96R FOG     WCI  -3

$$
NMZ532>537-281500-
EASTCENTRAL PLAINS

CITY           SKY/WX    TMP DP  RH WIND       PRES   REMARKS
TUCUMCARI      CLOUDY    16  13  88 S12       30.07R WCI   3
CANNON AFB     LGT SNOW  14  10  85 S7        30.08S FOG     WCI   4
CLOVIS AIRPORT CLOUDY    12  10  92 S7        30.09S WCI   2

$$
NMZ028-029-538-281500-
SOUTHEAST PLAINS

CITY           SKY/WX    TMP DP  RH WIND       PRES   REMARKS
ROSWELL        CLOUDY    20  18  92 SE9       30.11R FOG     WCI   9
ARTESIA        CLOUDY    21  21 100 SE17      30.12S FOG     WCI   7
CARLSBAD       CLOUDY    23  20  88 SE12      30.13R FOG     WCI  12
HOBBS          CLOUDY    18  18 100 E6        30.14R FOG     WCI   9


$$



USA.gov is the U.S. government's official web portal to all federal, state and local government web resources and services.